This is the latest recevied weather packets stored in our database for station/object N0SWP-3. If no packets are shown the sender has not sent any weather packets the latest 10 day(s).
| Time | Temp. | Humidity | Pressure | Rain* | Wind** | Luminosity | Snow |
|---|---|---|---|---|---|---|---|
| 1777671363 | 18.33° C | 35% | 1017 hPa | 0 mm | - | - | - |
| 1777671317 | 18.33° C | 34% | 1017.1 hPa | 0 mm | - | - | - |
| 1777670823 | 18.89° C | 36% | 1017.2 hPa | 0 mm | - | - | - |
| 1777669743 | 18.89° C | 35% | 1017.6 hPa | 0 mm | - | - | - |
| 1777669203 | 18.89° C | 34% | 1017.6 hPa | 0 mm | - | - | - |
| 1777667043 | 18.33° C | 36% | 1018.3 hPa | 0 mm | - | - | - |
| 1777663983 | 21.11° C | 34% | 1018.9 hPa | 0 mm | - | - | - |
| 1777663938 | 21.11° C | 31% | 1018.9 hPa | 0 mm | - | - | - |
| 1777663623 | 20° C | 31% | 1018.9 hPa | 0 mm | - | - | - |
| 1777663263 | 19.44° C | 34% | 1018.9 hPa | 0 mm | - | - | - |
| 1777662138 | 20° C | 33% | 1018.9 hPa | 0 mm | - | - | - |
| 1777661417 | 20° C | 33% | 1018.9 hPa | 0 mm | - | - | - |
| 1777661103 | 19.44° C | 33% | 1019 hPa | 0 mm | - | - | - |
| 1777660563 | 18.33° C | 32% | 1019 hPa | 0 mm | - | - | - |
| 1777660203 | 20° C | 31% | 1019.1 hPa | 0 mm | - | - | - |
| 1777660024 | 20.56° C | 31% | 1019.2 hPa | 0 mm | - | - | - |
| 1777659797 | 21.11° C | 32% | 1019 hPa | 0 mm | - | - | - |
| 1777658043 | 19.44° C | 31% | 1019.5 hPa | 0 mm | - | - | - |
| 1777657504 | 20° C | 33% | 1019.5 hPa | 0 mm | - | - | - |
| 1777655703 | 19.44° C | 31% | 1019.7 hPa | 0 mm | - | - | - |
| 1777655163 | 18.89° C | 34% | 1019.6 hPa | 0 mm | - | - | - |
| 1777654803 | 18.33° C | 36% | 1019.6 hPa | 0 mm | - | - | - |
| 1777653723 | 17.78° C | 37% | 1019.7 hPa | 0 mm | - | - | - |
| 1777650843 | 15.56° C | 45% | 1019.7 hPa | 0 mm | - | - | - |
| 1777649403 | 14.44° C | 47% | 1019.7 hPa | 0 mm | - | - | - |
* Rain latest hour (hover to see other rain measurements)
** Current wind speed in m/s (hover to see current wind gust speed)